TimeCST,TemperatureF,Dew PointF,Humidity,Sea Level PressureIn,VisibilityMPH,Wind Direction,Wind SpeedMPH,Gust SpeedMPH,PrecipitationIn,Events,Conditions,WindDirDegrees,DateUTC
12:09 AM,30.2,23.0,75,29.49,10.0,West,10.4,-,N/A,,Clear,270,2000-01-10 06:09:00
12:30 AM,32.0,23.0,69,29.49,10.0,West,10.4,-,N/A,,Clear,270,2000-01-10 06:30:00
12:49 AM,32.0,23.0,69,29.49,10.0,West,9.2,-,N/A,,Clear,270,2000-01-10 06:49:00
1:10 AM,30.2,21.2,69,29.48,10.0,West,6.9,-,N/A,,Clear,270,2000-01-10 07:10:00
1:29 AM,28.4,21.2,74,29.48,10.0,West,6.9,-,N/A,,Clear,270,2000-01-10 07:29:00
1:52 AM,30.2,21.2,69,29.48,10.0,WSW,10.4,-,N/A,,Clear,250,2000-01-10 07:52:00
2:10 AM,30.2,21.2,69,29.49,10.0,WSW,10.4,-,N/A,,Clear,250,2000-01-10 08:10:00
2:30 AM,28.4,19.4,69,29.49,10.0,WSW,8.1,-,N/A,,Clear,250,2000-01-10 08:30:00
2:49 AM,28.4,19.4,69,29.49,10.0,West,9.2,-,N/A,,Clear,260,2000-01-10 08:49:00
3:33 AM,28.4,21.2,74,29.49,10.0,SW,13.8,-,N/A,,Clear,230,2000-01-10 09:33:00
3:49 AM,28.4,19.4,69,29.49,10.0,WSW,6.9,-,N/A,,Clear,250,2000-01-10 09:49:00
4:30 AM,28.4,19.4,69,29.49,10.0,WSW,10.4,-,N/A,,Clear,240,2000-01-10 10:30:00
4:53 AM,28.4,17.6,64,29.47,10.0,SW,12.7,-,N/A,,Clear,230,2000-01-10 10:53:00
5:09 AM,28.4,17.6,64,29.46,10.0,WSW,6.9,-,N/A,,Clear,240,2000-01-10 11:09:00
5:31 AM,26.6,17.6,69,29.47,10.0,SW,6.9,-,N/A,,Clear,230,2000-01-10 11:31:00
5:49 AM,26.6,17.6,69,29.47,10.0,WSW,4.6,-,N/A,,Clear,240,2000-01-10 11:49:00
6:09 AM,28.4,17.6,64,29.47,10.0,WSW,6.9,-,N/A,,Clear,240,2000-01-10 12:09:00
6:29 AM,26.6,15.8,64,29.47,10.0,SW,9.2,-,N/A,,Clear,230,2000-01-10 12:29:00
6:53 AM,26.6,17.6,69,29.47,10.0,SW,5.8,-,N/A,,Clear,230,2000-01-10 12:53:00
7:49 AM,24.8,15.8,69,29.48,10.0,SW,4.6,-,N/A,,Clear,230,2000-01-10 13:49:00
9:30 AM,33.8,21.2,60,29.50,10.0,WSW,9.2,-,N/A,,Clear,250,2000-01-10 15:30:00
10:09 AM,37.4,23.0,56,29.52,10.0,West,10.4,-,N/A,,Clear,260,2000-01-10 16:09:00
10:30 AM,39.2,24.8,56,29.54,10.0,WSW,15.0,-,N/A,,Clear,250,2000-01-10 16:30:00
10:51 AM,41.0,24.8,53,29.55,10.0,West,12.7,-,N/A,,Clear,260,2000-01-10 16:51:00
11:09 AM,42.8,24.8,49,29.55,10.0,WNW,19.6,-,N/A,,Clear,290,2000-01-10 17:09:00
11:30 AM,42.8,21.2,42,29.55,10.0,West,12.7,-,N/A,,Clear,280,2000-01-10 17:30:00
12:30 PM,46.4,21.2,37,29.57,10.0,NW,23.0,27.6,N/A,,Clear,310,2000-01-10 18:30:00
12:49 PM,48.2,21.2,34,29.56,10.0,NW,21.9,33.4,N/A,,Scattered Clouds,310,2000-01-10 18:49:00
1:11 PM,48.2,19.4,32,29.57,10.0,NW,24.2,31.1,N/A,,Clear,320,2000-01-10 19:11:00
1:33 PM,50.0,19.4,30,29.60,10.0,NW,27.6,33.4,N/A,,Scattered Clouds,310,2000-01-10 19:33:00
2:11 PM,48.2,14.0,25,29.61,10.0,WNW,18.4,27.6,N/A,,Mostly Cloudy,290,2000-01-10 20:11:00
2:28 PM,48.2,12.2,24,29.62,10.0,WNW,18.4,24.2,N/A,,Overcast,290,2000-01-10 20:28:00
2:50 PM,48.2,12.2,24,29.63,10.0,WNW,20.7,33.4,N/A,,Mostly Cloudy,290,2000-01-10 20:50:00
3:30 PM,48.2,12.2,24,29.66,10.0,West,20.7,26.5,N/A,,Scattered Clouds,280,2000-01-10 21:30:00
3:48 PM,48.2,12.2,24,29.68,10.0,West,21.9,25.3,N/A,,Scattered Clouds,270,2000-01-10 21:48:00
4:28 PM,48.2,12.2,24,29.68,10.0,West,18.4,29.9,N/A,,Mostly Cloudy,270,2000-01-10 22:28:00
5:10 PM,46.4,10.4,23,29.69,10.0,West,20.7,26.5,N/A,,Scattered Clouds,260,2000-01-10 23:10:00
5:28 PM,44.6,10.4,25,29.69,10.0,West,20.7,26.5,N/A,,Clear,260,2000-01-10 23:28:00
5:48 PM,44.6,8.6,23,29.71,10.0,West,20.7,26.5,N/A,,Clear,270,2000-01-10 23:48:00
6:28 PM,42.8,5.0,21,29.73,10.0,West,19.6,27.6,N/A,,Clear,280,2000-01-11 00:28:00
6:50 PM,42.8,3.2,19,29.75,10.0,West,16.1,26.5,N/A,,Clear,280,2000-01-11 00:50:00
7:08 PM,41.0,1.4,19,29.76,10.0,West,18.4,25.3,N/A,,Clear,280,2000-01-11 01:08:00
7:50 PM,41.0,1.4,19,29.78,10.0,WNW,21.9,28.8,N/A,,Clear,290,2000-01-11 01:50:00
8:08 PM,39.2,1.4,21,29.79,10.0,WNW,23.0,29.9,N/A,,Clear,290,2000-01-11 02:08:00
8:31 PM,39.2,1.4,21,29.81,10.0,WNW,20.7,27.6,N/A,,Clear,300,2000-01-11 02:31:00
8:48 PM,37.4,1.4,22,29.82,10.0,NW,20.7,28.8,N/A,,Clear,310,2000-01-11 02:48:00
9:30 PM,35.6,6.8,30,29.85,10.0,WNW,16.1,21.9,N/A,,Clear,300,2000-01-11 03:30:00
9:48 PM,35.6,6.8,30,29.87,10.0,WNW,17.3,23.0,N/A,,Clear,300,2000-01-11 03:48:00
10:13 PM,35.6,8.6,33,29.88,10.0,WNW,17.3,24.2,N/A,,Clear,300,2000-01-11 04:13:00
10:29 PM,35.6,8.6,33,29.88,10.0,NW,19.6,26.5,N/A,,Clear,310,2000-01-11 04:29:00
10:48 PM,33.8,8.6,35,29.89,10.0,WNW,15.0,-,N/A,,Clear,300,2000-01-11 04:48:00
11:30 PM,32.0,8.6,38,29.90,10.0,WNW,12.7,-,N/A,,Clear,300,2000-01-11 05:30:00
11:48 PM,32.0,10.4,41,29.92,10.0,WNW,10.4,-,N/A,,Clear,290,2000-01-11 05:48:00